Regional Weather Roundup
Issued by NWS

Home | Current Version | Previous Version | Text Only | Print | Product List | Glossary Off
Versions: 1 2 3 4 5 6 7 8 9 10 11 12 13 14 15 16 17 18 19 20 21 22 23 24 25 26 27 28 29 30 31 32 33 34 35 36 37 38 39 40 41 42 43 44 45 46 47 48 49 50

000
ASUS43 KLMK 232002
RWRKY
KENTUCKY REGIONAL WEATHER ROUNDUP
NATIONAL WEATHER SERVICE LOUISVILLE KY
400 PM EDT TUE SEP 23 2014

NOTE "FAIR" INDICATES FEW OR NO CLOUDS BELOW 12,000 FEET
WITH NO SIGNIFICANT WEATHER AND/OR OBSTRUCTIONS TO VISIBILITY.

KYZ001>023-026-027-061>063-070>075-232100-
WESTERN AND SOUTH CENTRAL KENTUCKY

CITY           SKY/WX    TMP DP  RH WIND       PRES   REMARKS
PADUCAH        SUNNY     79  45  29 NE9       30.23F
HENDERSON      SUNNY     73  45  35 E6        30.26F
OWENSBORO      SUNNY     75  45  34 NE8       30.26F
HOPKINSVILLE   SUNNY     76  45  32 NE13      30.22F
BOWLING GREEN  SUNNY     77  45  32 NE13      30.24F
GLASGOW        SUNNY     75  42  31 E6        30.24F
$$

KYZ024-025-028>034-038-045-046-053-232100-
NORTH CENTRAL KENTUCKY

CITY           SKY/WX    TMP DP  RH WIND       PRES   REMARKS
LOUISVILLE/SDF SUNNY     75  44  33 NE9       30.27F
LOUISVILLE/LOU SUNNY     73  44  35 VRB7      30.28F
FORT KNOX      SUNNY     72  46  40 NE8       30.26F
$$

KYZ035>037-039>044-047>052-055>060-089>105-232100-
NORTHEAST KENTUCKY

CITY           SKY/WX    TMP DP  RH WIND       PRES   REMARKS
LEXINGTON      SUNNY     73  45  36 NE13      30.28F
COVINGTON      SUNNY     71  42  35 CALM      30.30F
FRANKFORT      SUNNY     72  44  36 E12       30.28F
$$

KYZ054-064>069-076>088-106>120-232100-
SOUTHEAST KENTUCKY

CITY           SKY/WX    TMP DP  RH WIND       PRES   REMARKS
JACKSON        SUNNY     69  48  47 CALM      30.29F
LONDON         SUNNY     74  47  38 VRB5      30.27F
SOMERSET       SUNNY     72  41  33 E8        30.26F
MIDDLESBORO    SUNNY     74  52  47 CALM      30.25F
MONTICELLO     CLEAR     74  49  41 NE6       30.27F
$$



USA.gov is the U.S. government's official web portal to all federal, state and local government web resources and services.